Oak Ridge, TN

6:47 AM EDT on September 25, 2017 (GMT -0400)
Oak Ridge

Weather History for KOQT - March, 2013

Change the Weather History Date:

Saturday, March 23, 2013

  Actual Average (KTYS) Record (KTYS)
Temperature  
Mean Temperature 46 °F -  
Max Temperature 53 °F 62 °F 85 °F (1907)
Min Temperature 39 °F 37 °F 17 °F (1895)
Degree Days  
Heating Degree Days 20    
Moisture  
Dew Point 36 °F    
Average Humidity 70    
Maximum Humidity 87    
Minimum Humidity 58    
Precipitation  
Precipitation 0.02 in - - ()
Sea Level Pressure  
Sea Level Pressure 29.98 in    
Wind  
Wind Speed 2 mph (NE)    
Max Wind Speed 6 mph    
Max Gust Speed -    
Visibility 10 miles    
Events Rain    
Averages and records for this station are not official NWS values.
T = Trace of Precipitation, MM = Missing Value Source: NWS Daily Summary

Daily Weather History Graph

Daily Weather History Graph

Search for Another Location

Airport or City:

Trip Planner

Search our weather history database for the weather conditions in past years. The results will help you decide how hot, cold, wet, or windy it might be!

Date:

Astronomy

Mar. 23, 2013 Rise Set
Actual Time 7:35 AM EDT 7:51 PM EDT
Civil Twilight 7:10 AM EDT 8:17 PM EDT
Nautical Twilight 6:40 AM EDT 8:47 PM EDT
Astronomical Twilight 6:09 AM EDT 9:17 PM EDT
Moon 4:22 PM EDT (3/23) 5:05 AM EDT (3/23)
Length of Visible Light 13h 06m
Length of Day
12h 15m
Waxing Gibbous, 85% of the Moon is Illuminated
Mar 23
Waxing Gibbous
Mar 27
Full
Apr 3
Last Quarter
Apr 10
New
Apr 18
First Quarter

Hourly Weather History & Observations

Time (EDT) Temp. Windchill Dew Point Humidity Pressure Visibility Wind Dir Wind Speed Gust Speed Precip Events Conditions
12:53 AM 42.1 °F - 28.0 °F 58% 30.06 in 10.0 mi Calm Calm - N/A   Overcast
1:53 AM 42.1 °F - 28.9 °F 60% 30.04 in 10.0 mi Calm Calm - N/A   Overcast
2:53 AM 42.1 °F - 28.0 °F 58% 30.04 in 10.0 mi Calm Calm - N/A   Overcast
3:53 AM 42.1 °F - 28.0 °F 58% 30.02 in 10.0 mi Calm Calm - N/A   Overcast
4:53 AM 41.0 °F - 32.0 °F 70% 30.01 in 10.0 mi Calm Calm - 0.00 in   Overcast
5:53 AM 39.0 °F - 34.0 °F 82% 30.01 in 10.0 mi Calm Calm - 0.02 in Rain Light Rain
6:53 AM 39.0 °F - 34.0 °F 82% 30.02 in 10.0 mi Calm Calm - 0.00 in   Overcast
7:20 AM 39.2 °F - 33.8 °F 81% 30.01 in 10.0 mi Calm Calm - N/A   Overcast
7:53 AM 39.0 °F - 35.1 °F 86% 30.04 in 10.0 mi Calm Calm - N/A   Overcast
8:53 AM 39.9 °F - 34.0 °F 79% 30.05 in 9.0 mi Calm Calm - N/A   Overcast
9:53 AM 39.9 °F 36.7 °F 34.0 °F 79% 30.06 in 7.0 mi NE 4.6 mph - N/A   Overcast
10:53 AM 39.9 °F 37.8 °F 35.1 °F 83% 30.06 in 5.0 mi NE 3.5 mph - N/A   Haze
11:04 AM 39.2 °F 35.9 °F 35.6 °F 87% 30.03 in 6.0 mi NE 4.6 mph - N/A   Overcast
11:48 AM 41.0 °F 38.0 °F 35.6 °F 81% 30.03 in 10.0 mi NE 4.6 mph - N/A   Overcast
11:53 AM 42.1 °F 39.2 °F 36.0 °F 79% 30.06 in 10.0 mi NE 4.6 mph - N/A   Overcast
12:53 PM 44.1 °F 41.5 °F 36.0 °F 73% 30.03 in 10.0 mi ENE 4.6 mph - N/A   Overcast
1:53 PM 46.0 °F - 37.0 °F 71% 30.02 in 10.0 mi Calm Calm - N/A   Overcast
2:53 PM 48.9 °F - 39.0 °F 69% 29.99 in 10.0 mi Variable 4.6 mph - N/A   Overcast
3:53 PM 51.1 °F - 39.9 °F 66% 29.96 in 10.0 mi Variable 3.5 mph - N/A   Overcast
4:07 PM 50.0 °F - 39.2 °F 66% 29.94 in 10.0 mi NE 5.8 mph - N/A   Overcast
4:53 PM 52.0 °F - 39.9 °F 63% 29.95 in 10.0 mi Variable 4.6 mph - N/A   Mostly Cloudy
5:09 PM 51.8 °F - 39.2 °F 62% 29.93 in 10.0 mi North 4.6 mph - N/A   Overcast
5:21 PM 51.8 °F - 39.2 °F 62% 29.93 in 10.0 mi Variable 4.6 mph - N/A   Overcast
5:53 PM 52.0 °F - 39.9 °F 63% 29.94 in 10.0 mi NE 4.6 mph - N/A   Overcast
6:53 PM 51.1 °F - 39.9 °F 66% 29.92 in 10.0 mi NE 4.6 mph - N/A   Partly Cloudy
7:53 PM 51.1 °F - 39.9 °F 66% 29.93 in 10.0 mi Calm Calm - N/A   Clear
8:53 PM 50.0 °F - 39.0 °F 66% 29.89 in 10.0 mi ENE 3.5 mph - N/A   Partly Cloudy
9:53 PM 48.9 °F - 39.0 °F 69% 29.85 in 10.0 mi NE 3.5 mph - N/A   Partly Cloudy
10:53 PM 48.9 °F - 37.0 °F 64% 29.83 in 10.0 mi ENE 4.6 mph - N/A   Scattered Clouds
11:53 PM 48.9 °F - 37.9 °F 66% 29.81 in 10.0 mi Calm Calm - N/A   Overcast